GW7365 Weather Reports


time (UTC)temp
F
wind
direction
speed
knots
gust
knots
rain 1hr
in
rain 24hr
in
rain mn
in
humidity
%
barometer
mb
20260507085603 54 23 5.2 9.6 0.00 0.04 0.00 71 1015.5
20260507085335 54 326 6.1 9.6 0.00 0.04 0.00 71 1015.4
20260507084604 54 345 5.2 8.7 0.00 0.05 0.00 71 1015.4
20260507084104 54 347 4.3 9.6 0.00 0.05 0.00 69 1015.5
20260507083838 53 30 5.2 9.6 0.00 0.05 0.00 71 1015.5
20260507083102 53 3 5.2 9.6 0.00 0.05 0.00 70 1015.5
20260507082846 53 0 4.3 7.8 0.00 0.05 0.00 70 1015.5
20260507082104 53 347 4.3 8.7 0.00 0.05 0.00 71 1015.5
20260507081605 53 13 5.2 8.7 0.00 0.05 0.00 72 1015.5
20260507081101 52 326 5.2 7.8 0.00 0.05 0.00 73 1015.5
20260507080830 52 0 5.2 9.6 0.00 0.05 0.00 72 1015.5
20260507075602 52 353 5.2 9.6 0.00 0.05 0.00 73 1015.4
20260507075102 52 329 5.2 8.7 0.00 0.05 0.00 71 1015.3
20260507074602 52 18 4.3 7.8 0.00 0.05 0.00 73 1015.4
20260507074331 52 24 5.2 8.7 0.00 0.05 0.00 74 1015.3
20260507073602 51 354 5.2 8.7 0.00 0.05 0.00 75 1015.3
20260507073102 51 15 5.2 10.4 0.00 0.05 0.00 76 1015.2
20260507072602 51 34 5.2 10.4 0.00 0.05 0.00 77 1015.2
20260507072102 51 344 4.3 7.0 0.00 0.05 0.00 81 1015.2
20260507071559 51 20 3.5 7.0 0.00 0.05 0.00 81 1015.2
20260507071057 50 354 4.3 7.0 0.00 0.05 0.00 82 1015.2
20260507070830 50 341 4.3 7.0 0.00 0.05 0.00 81 1015.2
20260507070331 50 352 3.5 6.1 0.00 0.05 0.00 83 1015.2
20260507070054 49 342 3.5 6.1 0.00 0.05 0.00 84 1015.2
20260507065329 49 334 4.3 7.0 0.00 0.05 0.00 83 1015.2
20260507064604 49 313 4.3 7.0 0.00 0.05 0.00 86 1015.1
20260507064101 48 340 4.3 7.0 0.00 0.05 0.00 86 1015.1
20260507063558 48 340 4.3 7.0 0.00 0.05 0.00 86 1015.1
20260507063057 48 338 4.3 6.1 0.00 0.05 0.00 87 1015.1
20260507062557 47 318 4.3 6.1 0.00 0.05 0.00 87 1015.1
20260507062057 47 341 3.5 6.1 0.00 0.05 0.00 87 1015.0
20260507061557 47 357 3.5 6.1 0.00 0.05 0.00 87 1015.0
20260507061055 47 352 4.3 7.8 0.00 0.05 0.00 88 1015.0
20260507060552 47 324 5.2 7.8 0.00 0.05 0.00 89 1015.0
20260507060101 46 346 3.5 6.1 0.00 0.05 0.00 89 1014.8
20260507060053 47 326 4.3 7.8 0.00 0.05 0.00 88 1014.9
20260507055815 46 357 4.3 6.1 0.00 0.05 0.00 89 1014.8
20260507054549 46 323 4.3 7.0 0.00 0.05 0.00 89 1014.8
20260507054048 46 320 3.5 7.0 0.00 0.05 0.00 89 1014.8
20260507053549 46 353 3.5 7.0 0.00 0.05 0.00 89 1014.8
20260507053048 46 346 2.6 5.2 0.00 0.05 0.00 90 1014.7
20260507052549 46 350 2.6 4.3 0.00 0.05 0.00 89 1014.7
20260507052050 45 340 1.7 4.3 0.00 0.05 0.00 89 1014.7
20260507051549 45 350 1.7 3.5 0.00 0.05 0.00 89 1014.6
20260507051049 45 337 1.7 4.3 0.00 0.05 0.00 90 1014.6
20260507050549 45 310 1.7 4.3 0.00 0.05 0.00 90 1014.5
20260507050046 44 312 2.6 3.5 0.00 0.05 0.00 91 1014.4
20260507045544 44 311 2.6 4.3 0.00 0.05 0.00 91 1014.4
20260507045040 44 299 2.6 5.2 0.00 0.05 0.00 92 1014.3
20260507044809 44 308 3.5 5.2 0.00 0.05 0.00 92 1014.3
20260507044041 44 319 3.5 5.2 0.00 0.05 0.00 93 1014.2
20260507043538 44 333 3.5 5.2 0.00 0.05 0.00 92 1014.2
20260507043038 44 309 3.5 5.2 0.00 0.05 0.00 92 1014.2
20260507042808 44 321 2.6 4.3 0.00 0.05 0.00 92 1014.1
20260507042039 44 307 3.5 5.2 0.00 0.05 0.00 92 1014.1
20260507041539 44 333 3.5 5.2 0.00 0.05 0.00 92 1014.1
20260507041055 44 312 3.5 5.2 0.00 0.05 0.00 93 1014.0
20260507041048 44 320 3.5 5.2 0.00 0.05 0.00 93 1014.1
20260507040302 44 333 3.5 5.2 0.00 0.05 0.00 93 1014.0
20260507035534 43 296 2.6 4.3 0.00 0.05 0.00 94 1013.9
20260507035032 43 318 2.6 5.2 0.00 0.05 0.00 94 1013.8
20260507034532 43 326 3.5 5.2 0.00 0.05 0.00 94 1013.8
20260507034032 43 324 3.5 4.3 0.00 0.05 0.00 94 1013.8
20260507033813 43 321 2.6 4.3 0.00 0.05 0.00 94 1013.8
20260507033031 43 338 2.6 5.2 0.00 0.05 0.00 95 1013.8
20260507032531 43 320 3.5 5.2 0.00 0.05 0.00 95 1013.8
20260507032031 43 329 3.5 5.2 0.00 0.05 0.00 95 1013.7
20260507031531 44 323 3.5 5.2 0.00 0.05 0.00 95 1013.7
20260507031308 44 329 3.5 5.2 0.00 0.05 0.00 96 1013.7
20260507031033 44 321 3.5 5.2 0.00 0.05 0.00 95 1013.7
20260507030032 43 347 3.5 5.2 0.00 0.05 0.00 96 1013.6
20260507025804 43 327 3.5 6.1 0.00 0.05 0.00 95 1013.7
20260507025031 44 335 3.5 6.1 0.00 0.05 0.00 95 1013.7
20260507024531 44 325 3.5 6.1 0.00 0.05 0.00 95 1013.6
20260507024030 44 332 3.5 5.2 0.00 0.05 0.00 95 1013.6
20260507023527 44 340 3.5 5.2 0.00 0.05 0.00 95 1013.6
20260507023027 44 345 3.5 5.2 0.00 0.06 0.00 95 1013.5
20260507022528 44 329 3.5 5.2 0.00 0.06 0.00 95 1013.5
20260507022027 44 307 3.5 5.2 0.00 0.06 0.00 95 1013.4
20260507021528 44 340 3.5 5.2 0.00 0.06 0.00 95 1013.4
20260507021028 44 323 3.5 5.2 0.00 0.06 0.00 95 1013.4
20260507020527 44 10 2.6 5.2 0.00 0.06 0.00 95 1013.4
20260507020258 44 293 2.6 3.5 0.00 0.06 0.00 95 1013.3
20260507015805 44 318 2.6 3.5 0.00 0.06 0.00 94 1013.3
20260507015305 44 308 1.7 3.5 0.00 0.06 0.00 93 1013.3
20260507014526 44 310 1.7 2.6 0.00 0.06 0.00 91 1013.2
20260507014031 45 314 1.7 3.5 0.00 0.06 0.00 88 1013.2
20260507014026 44 283 1.7 2.6 0.00 0.06 0.00 89 1013.2
20260507013023 45 5 2.6 4.3 0.00 0.06 0.00 87 1013.2
20260507012519 45 15 3.5 5.2 0.00 0.06 0.00 87 1013.3
20260507012016 45 30 5.2 6.1 0.00 0.06 0.00 85 1013.2
20260507011517 45 24 5.2 7.8 0.00 0.06 0.00 85 1013.1
20260507011017 46 25 6.1 7.8 0.00 0.06 0.00 85 1013.1
20260507010517 46 16 6.1 7.8 0.00 0.06 0.00 86 1013.0
20260507010017 45 18 7.0 8.7 0.00 0.06 0.00 87 1013.0
20260507005747 45 13 6.1 8.7 0.00 0.06 0.00 88 1013.0
20260507005257 45 4 5.2 7.8 0.00 0.06 0.00 90 1013.0
20260507004517 45 357 4.3 6.1 0.00 0.06 0.00 92 1013.0
20260507004015 45 3 3.5 6.1 0.00 0.06 0.00 93 1013.0
20260507003514 46 337 4.3 6.1 0.00 0.06 0.00 92 1013.0
20260507003011 46 352 4.3 7.0 0.00 0.06 0.00 91 1012.9
20260507002512 46 336 5.2 7.0 0.00 0.06 0.00 91 1012.9
20260507002254 46 350 5.2 7.8 0.00 0.06 0.00 91 1012.9
20260507001508 46 334 6.1 8.7 0.00 0.06 0.00 90 1012.9
20260507001011 47 353 6.1 8.7 0.00 0.06 0.00 90 1012.9
20260507000510 47 339 5.2 7.8 0.00 0.06 0.00 89 1012.8
20260507000246 47 353 5.2 7.8 0.00 0.06 0.00 89 1012.8
20260506235509 47 344 5.2 7.8 0.00 0.06 0.00 89 1012.8
20260506235009 48 353 6.1 8.7 0.00 0.06 0.00 88 1012.8
20260506234733 48 343 6.1 8.7 0.00 0.06 0.00 87 1012.7
20260506234008 48 347 6.1 7.8 0.00 0.06 0.00 87 1012.7
20260506233508 49 337 6.1 7.8 0.00 0.06 0.00 85 1012.7
20260506233007 49 337 6.1 7.8 0.00 0.06 0.00 85 1012.6
20260506232505 49 343 6.1 7.8 0.00 0.06 0.00 84 1012.6
20260506232004 49 358 6.1 7.8 0.00 0.06 0.00 83 1012.6
20260506231504 49 336 6.1 8.7 0.00 0.06 0.00 82 1012.6
20260506231004 50 359 6.1 9.6 0.00 0.06 0.00 82 1012.5
20260506230504 50 359 6.1 9.6 0.00 0.06 0.00 81 1012.5
20260506230237 50 349 6.1 8.7 0.00 0.06 0.00 81 1012.5
20260506225505 50 343 6.1 8.7 0.00 0.06 0.00 81 1012.5
20260506225002 50 347 7.0 10.4 0.00 0.06 0.00 80 1012.4
20260506224504 50 34 7.8 10.4 0.00 0.06 0.00 80 1012.3
20260506224003 50 7 7.8 9.6 0.00 0.06 0.00 80 1012.3
20260506223506 50 8 7.8 9.6 0.00 0.06 0.00 80 1012.4
20260506223003 50 359 7.8 9.6 0.00 0.06 0.00 80 1012.4
20260506222503 51 8 7.0 9.6 0.00 0.06 0.00 79 1012.4
20260506222001 50 3 6.1 9.6 0.00 0.06 0.00 79 1012.3
20260506221751 51 14 6.1 7.8 0.00 0.06 0.00 80 1012.4
20260506221005 51 11 5.2 7.8 0.00 0.06 0.00 79 1012.3
20260506220732 51 338 4.3 7.0 0.00 0.06 0.00 78 1012.3
20260506220229 51 1 5.2 7.0 0.00 0.06 0.06 78 1012.3
20260506215500 51 56 6.1 7.8 0.00 0.06 0.06 77 1012.2
20260506214959 51 8 6.1 7.8 0.00 0.06 0.06 76 1012.2
20260506214500 51 18 7.0 8.7 0.00 0.06 0.06 77 1012.1
20260506213959 51 9 7.0 8.7 0.00 0.06 0.06 76 1012.1
20260506213500 51 23 7.0 8.7 0.00 0.06 0.06 76 1012.1
20260506212959 51 19 6.1 8.7 0.00 0.06 0.06 76 1012.1
20260506212500 51 8 7.0 9.6 0.00 0.06 0.06 76 1012.0
20260506211956 52 14 7.8 10.4 0.00 0.06 0.06 77 1011.9
20260506211456 52 17 7.8 10.4 0.00 0.06 0.06 76 1011.9
20260506210956 52 350 7.0 11.3 0.00 0.06 0.06 76 1011.8
20260506210457 52 12 7.0 11.3 0.00 0.06 0.06 75 1011.8
20260506205953 52 339 6.1 8.7 0.00 0.06 0.06 76 1011.8
20260506205722 52 349 6.1 8.7 0.00 0.06 0.06 76 1011.7
20260506204951 52 1 6.1 8.7 0.00 0.06 0.06 76 1011.7
20260506204450 52 357 6.1 9.6 0.00 0.06 0.06 76 1011.7
20260506203950 52 358 6.1 10.4 0.00 0.06 0.06 77 1011.7
20260506203450 52 343 6.1 10.4 0.00 0.06 0.06 77 1011.7
20260506202950 52 358 5.2 8.7 0.00 0.06 0.06 77 1011.7
20260506202451 52 338 5.2 8.7 0.00 0.06 0.06 77 1011.6
20260506202221 52 355 5.2 7.0 0.00 0.06 0.06 76 1011.6
20260506201451 52 2 5.2 7.0 0.00 0.06 0.06 75 1011.6
20260506200948 53 331 5.2 9.6 0.00 0.06 0.06 74 1011.6
20260506200448 53 345 6.1 9.6 0.00 0.06 0.06 72 1011.5
20260506195948 53 338 6.1 8.7 0.00 0.06 0.06 70 1011.5
20260506195715 53 345 5.2 8.7 0.00 0.06 0.06 66 1011.5
20260506194946 53 333 3.5 6.1 0.00 0.06 0.06 67 1011.4
20260506194446 53 341 2.6 4.3 0.00 0.06 0.06 66 1011.4
20260506194230 53 1 2.6 4.3 0.00 0.06 0.06 67 1011.4
20260506193446 53 341 1.7 3.5 0.00 0.06 0.06 66 1011.3
20260506192947 53 23 1.7 3.5 0.00 0.06 0.06 66 1011.3
20260506192447 53 351 1.7 3.5 0.00 0.06 0.06 68 1011.2
20260506191946 53 60 2.6 9.6 0.00 0.06 0.06 67 1011.1
20260506191446 53 71 5.2 9.6 0.00 0.06 0.06 67 1011.1
20260506191227 53 34 7.8 12.2 0.00 0.06 0.06 64 1010.9
20260506190443 53 19 8.7 13.0 0.00 0.06 0.06 66 1010.9
20260506185940 53 11 8.7 13.0 0.00 0.06 0.06 64 1010.8
20260506185440 53 11 7.0 11.3 0.00 0.06 0.06 65 1010.8
20260506184940 53 19 7.0 10.4 0.00 0.06 0.06 68 1010.7
20260506184438 53 14 7.8 10.4 0.00 0.06 0.06 65 1010.6
20260506183938 53 351 7.0 8.7 0.00 0.06 0.06 65 1010.6
20260506183437 53 16 7.0 8.7 0.00 0.06 0.06 66 1010.6
20260506182938 53 24 7.0 9.6 0.00 0.06 0.06 65 1010.5
20260506182437 54 26 6.1 9.6 0.00 0.06 0.06 66 1010.4
20260506181937 54 29 5.2 7.8 0.00 0.06 0.06 65 1010.5
20260506181438 54 31 4.3 7.0 0.00 0.06 0.06 65 1010.4
20260506180939 54 3 4.3 6.1 0.00 0.06 0.06 66 1010.4
20260506180438 54 19 4.3 6.1 0.00 0.06 0.06 64 1010.3
20260506175938 54 30 2.6 4.3 0.00 0.06 0.06 65 1010.2
20260506175438 54 3 2.6 5.2 0.00 0.06 0.06 65 1010.2
20260506174936 54 26 3.5 5.2 0.00 0.06 0.06 63 1010.1
20260506174432 54 30 3.5 5.2 0.00 0.06 0.06 63 1010.0
20260506173933 54 30 3.5 5.2 0.00 0.07 0.06 63 1010.0
20260506173432 54 28 3.5 5.2 0.00 0.07 0.06 63 1009.9
20260506172932 54 26 3.5 5.2 0.00 0.07 0.06 62 1009.9
20260506172431 54 33 3.5 5.2 0.00 0.07 0.06 62 1009.8
20260506171931 55 35 3.5 5.2 0.00 0.07 0.06 58 1009.7
20260506171431 55 63 3.5 5.2 0.00 0.07 0.06 58 1009.7
20260506170932 55 63 3.5 6.1 0.00 0.07 0.06 59 1009.7
20260506170438 55 43 3.5 6.1 0.00 0.07 0.06 58 1009.6
20260506165938 55 30 3.5 6.1 0.00 0.07 0.06 59 1009.6
20260506165435 55 38 3.5 6.1 0.00 0.07 0.06 60 1009.6
20260506164932 55 37 4.3 7.0 0.00 0.07 0.06 62 1009.6
20260506164437 55 65 5.2 7.8 0.00 0.08 0.06 57 1009.6
20260506164430 55 34 5.2 7.8 0.00 0.08 0.06 60 1009.6
20260506163427 55 38 5.2 7.8 0.00 0.08 0.06 55 1009.6
20260506162928 55 44 5.2 9.6 0.00 0.08 0.06 57 1009.6
20260506162428 55 52 5.2 9.6 0.00 0.08 0.06 59 1009.6
20260506161928 55 58 5.2 7.8 0.00 0.09 0.06 57 1009.6
20260506161427 55 33 5.2 9.6 0.00 0.09 0.06 56 1009.5
20260506160928 55 43 6.1 10.4 0.00 0.09 0.06 54 1009.5
20260506160427 55 48 7.0 10.4 0.00 0.09 0.06 57 1009.5
20260506155926 55 44 7.0 13.0 0.00 0.09 0.06 57 1009.5
20260506155425 55 63 7.0 13.0 0.00 0.09 0.06 58 1009.6
20260506155159 55 34 7.0 13.9 0.00 0.09 0.06 58 1009.5
20260506154925 55 38 7.0 11.3 0.00 0.09 0.06 59 1009.6
20260506153920 55 41 7.8 13.9 0.00 0.09 0.06 57 1009.5
20260506153419 55 17 7.8 13.0 0.00 0.09 0.06 60 1009.5
20260506152916 55 33 7.0 11.3 0.00 0.09 0.06 59 1009.5
20260506152416 55 12 6.1 11.3 0.00 0.09 0.06 58 1009.5
20260506152147 55 37 6.1 11.3 0.00 0.09 0.06 57 1009.6
20260506151417 55 31 6.1 11.3 0.00 0.09 0.06 57 1009.5
20260506150917 55 48 7.0 11.3 0.00 0.09 0.06 58 1009.5
20260506150417 55 57 7.0 10.4 0.00 0.09 0.06 56 1009.5
20260506150148 55 38 7.8 14.8 0.00 0.09 0.06 57 1009.5
20260506145414 55 43 8.7 16.5 0.00 0.09 0.06 57 1009.4
20260506144911 55 35 8.7 16.5 0.00 0.09 0.06 57 1009.4
20260506144408 55 37 7.0 11.3 0.00 0.09 0.06 57 1009.4
20260506143908 55 46 7.0 10.4 0.00 0.09 0.06 57 1009.4
20260506143406 55 37 7.0 11.3 0.00 0.09 0.06 59 1009.4
20260506142906 55 56 7.0 12.2 0.00 0.09 0.06 56 1009.3
20260506142406 54 42 7.0 12.2 0.00 0.09 0.06 58 1009.4
20260506141906 54 37 7.8 12.2 0.00 0.09 0.06 57 1009.4
20260506141406 54 42 7.8 14.8 0.00 0.09 0.06 58 1009.5
20260506141137 54 69 9.6 16.5 0.00 0.09 0.06 58 1009.4
20260506140407 54 34 9.6 16.5 0.00 0.09 0.06 58 1009.3
20260506135907 55 36 7.8 13.9 0.00 0.09 0.06 56 1009.4
20260506135403 55 39 7.8 13.9 0.00 0.09 0.06 57 1009.4
20260506134902 55 27 7.8 13.9 0.00 0.09 0.06 55 1009.3
20260506134636 55 60 7.8 13.9 0.00 0.09 0.06 53 1009.3
20260506133900 55 31 7.8 13.9 0.00 0.09 0.06 53 1009.2
20260506133400 56 36 7.8 13.9 0.00 0.09 0.06 54 1009.3
20260506132858 55 31 10.4 20.9 0.00 0.09 0.06 53 1009.2
20260506132357 55 38 13.9 20.9 0.00 0.09 0.06 52 1009.1
20260506131855 55 16 15.6 22.6 0.00 0.09 0.06 51 1009.1
20260506131355 55 23 15.6 22.6 0.00 0.09 0.06 52 1008.8
20260506130855 55 31 14.8 20.9 0.00 0.09 0.06 52 1008.9
20260506130356 55 25 12.2 18.2 0.00 0.09 0.05 52 1009.0
20260506125856 56 27 11.3 20.0 0.00 0.09 0.05 53 1009.0
20260506125632 56 36 12.2 20.0 0.00 0.09 0.05 52 1008.9
20260506124856 56 21 13.0 18.2 0.00 0.09 0.05 52 1008.9
20260506124354 56 14 12.2 18.2 0.00 0.09 0.05 52 1008.8
20260506123855 56 32 10.4 18.2 0.00 0.09 0.05 58 1008.7
20260506123355 56 39 10.4 17.4 0.00 0.09 0.05 60 1008.6
20260506122855 55 28 11.3 17.4 0.00 0.09 0.05 62 1008.7
20260506122354 55 29 9.6 16.5 0.00 0.09 0.05 60 1008.7
20260506122123 55 11 7.8 13.0 0.00 0.09 0.05 60 1008.7
20260506121350 55 11 7.8 12.2 0.00 0.09 0.05 63 1008.8
20260506120849 54 9 7.8 12.2 0.00 0.09 0.05 63 1008.8
20260506120350 54 5 7.0 9.6 0.00 0.09 0.05 66 1008.8
20260506115849 54 3 7.0 10.4 0.00 0.09 0.05 70 1008.8
20260506115350 54 20 7.8 13.0 0.00 0.09 0.05 69 1008.8
20260506114849 54 7 8.7 13.0 0.00 0.09 0.05 69 1008.8
20260506114350 54 11 9.6 13.9 0.00 0.09 0.05 70 1008.8
20260506113850 54 10 9.6 13.9 0.00 0.09 0.05 71 1008.7
20260506113350 53 6 9.6 13.9 0.00 0.09 0.05 72 1008.8
20260506112850 53 3 8.7 15.6 0.00 0.09 0.05 74 1008.9
20260506112350 53 16 10.4 15.6 0.00 0.09 0.05 74 1008.9
20260506111849 53 11 10.4 14.8 0.00 0.09 0.05 74 1008.8
20260506111347 53 1 10.4 15.6 0.00 0.09 0.05 75 1008.8
20260506110848 53 6 10.4 15.6 0.00 0.09 0.05 76 1008.7
20260506110344 53 0 11.3 16.5 0.00 0.09 0.05 77 1008.8
20260506105845 53 21 12.2 21.7 0.00 0.09 0.05 77 1008.7
20260506105345 53 18 13.0 21.7 0.00 0.09 0.05 78 1008.6
20260506104844 53 13 13.0 18.2 0.00 0.09 0.05 76 1008.7
20260506104345 53 8 13.0 20.9 0.00 0.09 0.05 77 1008.5
20260506103845 54 13 14.8 20.9 0.00 0.09 0.05 77 1008.6
20260506103621 54 9 14.8 20.9 0.00 0.09 0.05 74 1008.2
20260506103616 54 8 13.9 19.1 0.01 0.09 0.05 73 1008.5
20260506102343 55 6 12.2 18.2 0.01 0.09 0.05 71 1008.5
20260506101842 55 13 11.3 14.8 0.02 0.09 0.05 68 1008.4
20260506101339 55 9 12.2 19.1 0.02 0.09 0.05 65 1008.4
20260506100836 55 4 13.0 19.1 0.02 0.08 0.05 67 1008.2
20260506100604 55 6 12.2 19.1 0.02 0.08 0.05 68 1008.1
20260506095834 55 20 12.2 19.1 0.02 0.08 0.05 68 1008.1
20260506095337 56 33 13.0 19.1 0.04 0.08 0.05 65 1008.3
20260506094836 56 16 12.2 19.1 0.04 0.08 0.05 65 1008.1
20260506094335 56 30 11.3 21.7 0.04 0.08 0.05 65 1008.0
20260506093835 56 43 13.9 24.3 0.04 0.08 0.05 64 1008.1
20260506093601 55 28 16.5 24.3 0.04 0.08 0.05 64 1008.1
20260506092835 55 25 17.4 24.3 0.04 0.08 0.04 64 1007.9
20260506092335 55 16 14.8 22.6 0.04 0.07 0.04 66 1007.7
20260506091835 55 14 13.0 20.0 0.03 0.07 0.03 67 1007.7
20260506091336 55 29 12.2 19.1 0.03 0.07 0.03 67 1008.0
20260506090833 55 27 13.9 22.6 0.03 0.07 0.03 65 1007.8
20260506090329 55 31 16.5 24.3 0.02 0.06 0.02 68 1007.9
20260506085826 55 32 15.6 24.3 0.02 0.06 0.02 66 1007.8